Zurück zum Katalog

STARLINK-3969

AktivKommunikationVLEO
NORAD 52551·PAYLOAD·🇺🇸 United States

Gestartet May 13, 2022 von Vandenberg Space Force Base

Loading…

Nächste Überflüge (nächste 24 Stunden)

TLE

AktuellSource: CelesTrak SupGP

Epoche: Sep 14, 2026, 21:22 UTC

1 52551C 22051U   26257.89076389 -.00035079  00000+0 -10647-2 0  2572
2 52551  53.1594 348.0432 0000819  66.4172  66.6994 15.33560277    15

Verfolge STARLINK-3969 in Echtzeit mit AllMySat

Download on the App Store